Location: *
(46.4000°N, 12.6667°E)
Time: 22:41:32
(UTC+00:00)

Cosmos 1076 Rocket - Pass Details

Date: 09 April 2020
Orbit: 590 x 612 km, 82.5° (Epoch: 02 June)

Event Time Altitude Azimuth Distance (km) Brightness Sun altitude
Rises 19:38:50 0° 353° (N) 2,850 7.6 -18.1°
Reaches altitude 10° 19:41:04 10° 357° (N) 1,946 6.6 -18.4°
Maximum altitude 19:45:20 63° 79° (E) 677 3.5 -19.0°
Enters shadow 19:46:24 46° 136° (SE) 816 3.7 -19.2°
